Date String (YYYY-MM-DD hh:mm:ss) UTC,Instrument flags,absolute air pressure of the measurement (hPa),sample flow rate (lpm),inlet stack bypass flow (lpm),air temperature of the measurement (°C),ambient temperature measured by the external sensor (°C),aerosol sample conditioner tube jacket temperature (°C),OPC LED temperature (°C),internal box temperature (°C),relative humidity of the measurement (%),span deviation,mass concentration of particles derived from Lorenz-Mie calculation of OPC scattering (μg/m³),mass concentration of particles derived from Lorenz-Mie calculation of OPC scattering (μg/m³),mass concentration of particles derived from Lorenz-Mie calculation of OPC scattering (μg/m³)
DateTimeUTC,F1_M11,P_M11,Q1_M11,Q2_M11,T1_M11,T2_M11,T3_M11,T4_M11,T5_M11,U1_M11,ZSPAN_M11,X2_M11,X0_M11,X1_M11
2023-12-28 04:00:00,SystemResetWarning,0832.3,5.00,000.00,021.6,020.7,000.0,029.8,022.9,10.1,0000.0,0001.95,0003.66,0001.43
2023-12-28 04:01:00,SystemResetWarning,0832.4,4.99,000.00,021.6,020.7,000.0,029.8,022.9,10.0,0000.0,0001.94,0003.64,0001.40
2023-12-28 04:02:00,SystemResetWarning,0832.4,5.00,000.00,021.6,020.7,000.0,029.8,022.9,9.8,0000.0,0001.93,0003.61,0001.37
2023-12-28 04:03:00,SystemResetWarning,0832.3,5.00,000.00,021.6,020.7,000.0,029.8,022.9,9.7,0000.0,0001.94,0003.49,0001.33
2023-12-28 04:04:00,SystemResetWarning,0832.4,5.00,000.00,021.6,020.7,000.0,029.9,022.9,9.7,0000.0,0001.90,0003.56,0001.29
2023-12-28 04:05:00,SystemResetWarning,0832.4,5.00,000.00,021.6,020.7,000.0,029.9,022.9,9.7,0000.0,0001.84,0003.58,0001.26
2023-12-28 04:06:00,SystemResetWarning,0832.4,5.00,000.00,021.6,020.6,000.0,029.9,022.9,9.6,0000.0,0001.81,0004.16,0001.24
2023-12-28 04:07:00,SystemResetWarning,0832.4,5.00,000.00,021.6,020.6,000.0,029.9,022.9,9.6,0000.0,0001.84,0005.35,0001.22
2023-12-28 04:08:00,SystemResetWarning,0832.4,5.00,000.00,021.6,020.6,000.0,029.9,022.9,9.5,0000.0,0001.88,0006.01,0001.19
2023-12-28 04:09:00,SystemResetWarning,0832.4,5.00,000.00,021.6,020.6,000.0,029.9,022.9,9.5,0000.0,0001.87,0007.11,0001.17
2023-12-28 04:10:00,SystemResetWarning,0832.4,5.00,000.00,021.5,020.6,000.0,029.9,022.9,9.4,0000.0,0001.88,0007.80,0001.17
2023-12-28 04:11:00,SystemResetWarning,0832.3,5.00,000.00,021.5,020.5,000.0,029.9,022.9,9.4,0000.0,0001.93,0007.90,0001.18
2023-12-28 04:12:00,SystemResetWarning,0832.3,5.00,000.00,021.5,020.5,000.0,029.9,022.9,9.4,0000.0,0001.90,0007.83,0001.18
2023-12-28 04:13:00,SystemResetWarning,0832.3,4.99,000.00,021.5,020.4,000.0,029.9,022.9,9.5,0000.0,0001.84,0007.74,0001.16
2023-12-28 04:14:00,SystemResetWarning,0832.3,4.99,000.00,021.5,020.4,000.0,029.8,022.9,9.5,0000.0,0001.75,0008.09,0001.15
2023-12-28 04:15:00,SystemResetWarning,0832.3,5.01,000.00,021.5,020.4,000.0,029.8,022.9,9.5,0000.0,0001.72,0008.01,0001.12
2023-12-28 04:16:00,SystemResetWarning,0832.3,5.00,000.00,021.5,020.4,000.0,029.8,022.9,9.5,0000.0,0001.68,0007.93,0001.11
2023-12-28 04:17:00,SystemResetWarning,0832.3,5.00,000.00,021.5,020.4,000.0,029.8,022.9,9.5,0000.0,0001.62,0007.81,0001.09
2023-12-28 04:18:00,SystemResetWarning,0832.3,5.00,000.00,021.5,020.4,000.0,029.8,022.9,9.5,0000.0,0001.56,0006.55,0001.08
2023-12-28 04:19:00,SystemResetWarning,0832.3,4.99,000.00,021.5,020.4,000.0,029.8,022.9,9.5,0000.0,0001.47,0006.33,0001.08
2023-12-28 04:20:00,SystemResetWarning,0832.3,5.00,000.00,021.5,020.4,000.0,029.8,022.9,9.5,0000.0,0001.40,0005.45,0001.07
2023-12-28 04:21:00,SystemResetWarning,0832.3,5.00,000.00,021.5,020.4,000.0,029.8,022.9,9.5,0000.0,0001.34,0004.59,0001.04
2023-12-28 04:22:00,SystemResetWarning,0832.3,5.01,000.00,021.5,020.4,000.0,029.8,022.9,9.5,0000.0,0001.30,0003.97,0001.02
2023-12-28 04:23:00,SystemResetWarning,0832.3,5.00,000.00,021.5,020.4,000.0,029.8,022.9,9.6,0000.0,0001.26,0003.72,0001.00
2023-12-28 04:24:00,SystemResetWarning,0832.3,5.00,000.00,021.5,020.4,000.0,029.8,022.8,9.7,0000.0,0001.27,0003.73,0001.00
2023-12-28 04:25:00,SystemResetWarning,0832.3,5.00,000.00,021.5,020.3,000.0,029.8,022.8,9.6,0000.0,0001.31,0003.14,0001.03
2023-12-28 04:26:00,SystemResetWarning,0832.2,5.00,000.00,021.5,020.3,000.0,029.8,022.8,9.6,0000.0,0001.30,0002.75,0001.05
2023-12-28 04:27:00,SystemResetWarning,0832.2,5.00,000.00,021.5,020.3,000.0,029.8,022.8,9.6,0000.0,0001.33,0002.76,0001.06
2023-12-28 04:28:00,SystemResetWarning,0832.2,5.00,000.00,021.5,020.3,000.0,029.8,022.8,9.6,0000.0,0001.36,0002.83,0001.06
2023-12-28 04:29:00,SystemResetWarning,0832.2,5.00,000.00,021.4,020.3,000.0,029.8,022.8,9.7,0000.0,0001.35,0002.82,0001.06
2023-12-28 04:30:00,SystemResetWarning,0832.2,5.00,000.00,021.4,020.2,000.0,029.8,022.8,9.8,0000.0,0001.37,0002.76,0001.06
2023-12-28 04:31:00,SystemResetWarning,0832.2,5.01,000.00,021.4,020.2,000.0,029.8,022.7,9.8,0000.0,0001.37,0002.04,0001.05
2023-12-28 04:32:00,SystemResetWarning,0832.2,5.00,000.00,021.4,020.2,000.0,029.8,022.7,9.9,0000.0,0001.40,0002.19,0001.07
2023-12-28 04:33:00,SystemResetWarning,0832.2,5.00,000.00,021.4,020.2,000.0,029.8,022.7,9.9,0000.0,0001.41,0002.22,0001.08
2023-12-28 04:34:00,SystemResetWarning,0832.2,5.00,000.00,021.4,020.2,000.0,029.7,022.7,9.9,0000.0,0001.41,0002.20,0001.10
2023-12-28 04:35:00,SystemResetWarning,0832.1,5.01,000.00,021.4,020.2,000.0,029.7,022.7,9.9,0000.0,0001.40,0002.15,0001.12
2023-12-28 04:36:00,SystemResetWarning,0832.1,5.01,000.00,021.4,020.2,000.0,029.7,022.7,9.9,0000.0,0001.39,0002.12,0001.12
2023-12-28 04:37:00,SystemResetWarning,0832.1,5.01,000.00,021.4,020.2,000.0,029.7,022.7,10.0,0000.0,0001.40,0002.30,0001.12
2023-12-28 04:38:00,SystemResetWarning,0832.2,4.99,000.00,021.3,020.1,000.0,029.7,022.6,10.0,0000.0,0001.42,0004.43,0001.14
2023-12-28 04:39:00,SystemResetWarning,0832.2,5.00,000.00,021.3,020.1,000.0,029.7,022.6,10.0,0000.0,0001.42,0004.46,0001.16
2023-12-28 04:40:00,SystemResetWarning,0832.1,5.00,000.00,021.3,020.1,000.0,029.7,022.6,10.0,0000.0,0001.47,0004.56,0001.19
2023-12-28 04:41:00,SystemResetWarning,0832.1,4.99,000.00,021.3,020.1,000.0,029.7,022.6,10.1,0000.0,0001.51,0004.69,0001.20
2023-12-28 04:42:00,SystemResetWarning,0832.1,4.99,000.00,021.3,020.1,000.0,029.7,022.6,10.1,0000.0,0001.56,0004.76,0001.23
2023-12-28 04:43:00,SystemResetWarning,0832.1,4.99,000.00,021.3,020.0,000.0,029.7,022.6,10.1,0000.0,0001.56,0004.69,0001.24
2023-12-28 04:44:00,SystemResetWarning,0832.1,5.00,000.00,021.2,020.0,000.0,029.7,022.5,10.1,0000.0,0001.60,0004.78,0001.27
2023-12-28 04:45:00,SystemResetWarning,0832.1,5.00,000.00,021.2,020.0,000.0,029.6,022.5,10.1,0000.0,0001.62,0004.99,0001.28
2023-12-28 04:46:00,SystemResetWarning,0832.1,5.00,000.00,021.2,020.0,000.0,029.6,022.5,10.2,0000.0,0001.65,0006.15,0001.30
2023-12-28 04:47:00,SystemResetWarning,0832.1,5.00,000.00,021.2,020.0,000.0,029.6,022.5,10.2,0000.0,0001.69,0006.26,0001.31
2023-12-28 04:48:00,SystemResetWarning,0832.1,5.01,000.00,021.2,020.0,000.0,029.6,022.5,10.2,0000.0,0001.75,0006.93,0001.31
2023-12-28 04:49:00,SystemResetWarning,0832.1,5.01,000.00,021.2,020.0,000.0,029.6,022.5,10.2,0000.0,0001.75,0005.58,0001.31
2023-12-28 04:50:00,SystemResetWarning,0832.0,5.00,000.00,021.2,020.0,000.0,029.6,022.5,10.2,0000.0,0001.74,0005.52,0001.30
2023-12-28 04:51:00,SystemResetWarning,0832.1,5.00,000.00,021.1,019.9,000.0,029.6,022.4,10.2,0000.0,0001.76,0005.53,0001.31
2023-12-28 04:52:00,SystemResetWarning,0832.1,4.99,000.00,021.1,019.9,000.0,029.6,022.4,10.2,0000.0,0001.75,0005.42,0001.31
2023-12-28 04:53:00,SystemResetWarning,0832.1,5.00,000.00,021.1,019.9,000.0,029.6,022.4,10.2,0000.0,0001.71,0005.32,0001.30
2023-12-28 04:54:00,SystemResetWarning,0832.1,5.01,000.00,021.1,019.9,000.0,029.5,022.4,10.2,0000.0,0001.72,0006.44,0001.30
2023-12-28 04:55:00,SystemResetWarning,0832.2,5.00,000.00,021.1,019.8,000.0,029.5,022.4,10.2,0000.0,0001.71,0006.99,0001.28
2023-12-28 04:56:00,SystemResetWarning,0832.2,5.00,000.00,021.1,019.8,000.0,029.5,022.4,10.2,0000.0,0001.68,0006.89,0001.27
2023-12-28 04:57:00,SystemResetWarning,0832.2,5.01,000.00,021.1,019.8,000.0,029.5,022.4,10.2,0000.0,0001.67,0005.93,0001.24
2023-12-28 04:58:00,SystemResetWarning,0832.2,5.01,000.00,021.1,019.8,000.0,029.5,022.4,10.2,0000.0,0001.69,0006.56,0001.23
2023-12-28 04:59:00,SystemResetWarning,0832.2,5.00,000.00,021.1,019.8,000.0,029.5,022.4,10.2,0000.0,0001.65,0007.12,0001.20
